Weather Roundup
Issued by NWS Springfield, MO

Home | Current Version | Previous Version | Text Only | Print | Product List | Glossary On
Versions: 1 2 3 4 5 6 7 8 9 10 11 12 13 14 15 16 17 18 19 20 21 22 23 24 25 26 27 28 29 30 31 32 33 34 35 36 37 38 39 40 41 42 43 44 45 46 47 48 49 50
000
NZUS99 KSGF 180159
HRRSGF

HOURLY WEATHER
NATIONAL WEATHER SERVICE SPRINGFIELD MO
800 PM CST WED DEC 17 2014

......SGF CWA......

CITY           SKY/WX    TMP DP  RH WIND       PRES   REMARKS
SPRINGFIELD    RAIN      33  31  92 E7        30.23R FOG     WCI  27
JOPLIN         LGT RAIN  32  31  96 E7        30.22F FOG     WCI  26
WEST PLAINS    LGT RAIN  35  31  85 CALM      30.24R
ROLLA          CLOUDY    34  24  67 NE3       30.24R
OSAGE BEACH    CLOUDY    34  21  60 CALM      30.27R
BRANSON        LGT RAIN  32  32 100 E5        30.24S FOG     WCI  27

......SURROUNDING SGF CWA......

CITY           SKY/WX    TMP DP  RH WIND       PRES   REMARKS
CHANUTE        FRZ RAIN  31  29  92 E8        30.23F FOG     WCI  23
PARSONS        FRZ RAIN  33  31  92 VRB5      30.23S FOG     WCI  29
COFFEYVILLE    FRZ RAIN  32  31  96 NE7       30.23R FOG     WCI  26
EMPORIA        LGT SNOW  28  27  96 E8        30.22S VSB 3/4 WCI  20
ROGERS AR      LGT SNOW  34  34 100 E9        30.19F FOG     WCI  26
SILOAM SPRINGS CLOUDY    34  28  80 E5        30.20F WCI  30
HARRISON AR    RAIN      33  32  96 SE6       30.23S FOG     WCI  28
NEAR YELLVILLE CLOUDY    36  30  80 CALM      30.25R

......KANSAS AND MISSOURI......

CITY           SKY/WX    TMP DP  RH WIND       PRES   REMARKS
KANSAS CTY INT CLOUDY    30  22  72 SE8       30.26R WCI  22
DOWNTOWN KC    CLOUDY    31  22  69 E6        30.28R WCI  25
COLUMBIA       CLOUDY    32  26  78 E5        30.28R WCI  27
SEDALIA        CLOUDY    32  24  72 SE3       30.29R
ST JOSEPH      CLOUDY    30  21  69 E7        30.27S WCI  23
ST LOUIS       MOCLDY    33  25  72 NE6       30.29S WCI  28
SPIRIT OF STL  CLOUDY   N/A N/A N/A NE5       30.28S
KIRKSVILLE     CLOUDY    25  22  88 CALM      30.29R
WICHITA        LGT SNOW  31  28  89 E10       30.17F FOG     WCI  22
TOPEKA         CLOUDY    31  21  66 E7        30.25F WCI  24
OLATHE         CLOUDY    30  21  69 E3        30.24F

......TENNESSEE......

CITY           SKY/WX    TMP DP  RH WIND       PRES   REMARKS
MEMPHIS        CLOUDY    40  32  73 NE10      30.24F WCI  33
NASHVILLE      PTCLDY    35  28  75 NW5       30.28R WCI  31

......ARKANSAS.......

CITY           SKY/WX    TMP DP  RH WIND       PRES   REMARKS
FAYETTEVILLE   RAIN      36  35  96 CALM      30.19S FOG
FT SMITH       RAIN      36  36 100 SE3       30.27R FOG
LITTLE ROCK    CLOUDY    40  30  67 E8        30.26R WCI  34

......OKLAHOMA.......

CITY           SKY/WX    TMP DP  RH WIND       PRES   REMARKS
TULSA          CLOUDY    37  35  92 SE3       30.23R
PONCA CITY     MIX PCPN  34  32  92 E7        30.18S FOG     WCI  28
MCALESTER      LGT RAIN  38  36  92 SE10      30.19F WCI  31
OKLAHOMA CITY  CLOUDY    38  35  89 SE8       30.12F FOG     WCI  32

......IOWA............

CITY           SKY/WX    TMP DP  RH WIND       PRES   REMARKS
DES MOINES     CLEAR     24  16  71 NE5       30.29R WCI  18
QUAD CITIES    CLEAR     20  15  81 W5        30.30S WCI  13

......ILLINOIS........

CITY           SKY/WX    TMP DP  RH WIND       PRES   REMARKS
QUINCY         PTCLDY    25  18  74 CALM      30.29R
CHICAGO        CLOUDY    25  16  68 W9        30.27R WCI  15



USA.gov is the U.S. government's official web portal to all federal, state and local government web resources and services.